| time (UTC) | temp F | wind direction | speed MPH | gust MPH | rain 1hr in | rain 24hr in | rain mn in | humidity % | barometer mb |
| 20260505010011 | 68 | 173 | 0.0 | 0.0 | 0.00 | 0.00 | 0.00 | 52 | 1012.0 |
| 20260505004551 | 69 | 173 | 0.0 | 0.0 | 0.00 | 0.00 | 0.00 | 51 | 1011.9 |
| 20260505003053 | 71 | 173 | 0.0 | 0.0 | 0.00 | 0.00 | 0.00 | 49 | 1011.9 |
| 20260505001527 | 72 | 163 | 0.0 | 1.0 | 0.00 | 0.00 | 0.00 | 49 | 1011.7 |
| 20260505000024 | 73 | 158 | 0.0 | 4.0 | 0.00 | 0.00 | 0.00 | 48 | 1011.6 |
| 20260504234504 | 74 | 198 | 0.0 | 5.0 | 0.00 | 0.00 | 0.00 | 46 | 1011.7 |
| 20260504233109 | 75 | 180 | 0.0 | 6.0 | 0.00 | 0.00 | 0.00 | 44 | 1011.9 |
| 20260504231604 | 75 | 223 | 0.0 | 9.0 | 0.00 | 0.00 | 0.00 | 44 | 1011.9 |
| 20260504230049 | 76 | 195 | 0.0 | 12.0 | 0.00 | 0.00 | 0.00 | 43 | 1012.1 |
| 20260504224537 | 77 | 305 | 0.0 | 4.0 | 0.00 | 0.00 | 0.00 | 42 | 1012.2 |
| 20260504223018 | 77 | 185 | 1.0 | 8.0 | 0.00 | 0.00 | 0.00 | 40 | 1012.2 |
| 20260504221516 | 77 | 144 | 0.0 | 4.0 | 0.00 | 0.00 | 0.00 | 41 | 1012.3 |
| 20260504220100 | 77 | 284 | 0.0 | 6.0 | 0.00 | 0.00 | 0.00 | 41 | 1012.5 |
| 20260504214558 | 77 | 254 | 0.0 | 5.0 | 0.00 | 0.00 | 0.00 | 40 | 1012.5 |
| 20260504213037 | 78 | 228 | 0.0 | 7.0 | 0.00 | 0.00 | 0.00 | 43 | 1012.6 |
| 20260504211538 | 78 | 346 | 0.0 | 4.0 | 0.00 | 0.00 | 0.00 | 42 | 1012.7 |
| 20260504210017 | 78 | 63 | 0.0 | 7.0 | 0.00 | 0.00 | 0.00 | 43 | 1012.7 |
| 20260504204514 | 78 | 236 | 0.0 | 2.0 | 0.00 | 0.00 | 0.00 | 46 | 1012.8 |
| 20260504203107 | 77 | 217 | 0.0 | 6.0 | 0.00 | 0.00 | 0.00 | 44 | 1012.9 |
| 20260504201555 | 77 | 188 | 1.0 | 10.0 | 0.00 | 0.00 | 0.00 | 45 | 1013.1 |
| 20260504200035 | 76 | 241 | 0.0 | 5.0 | 0.00 | 0.00 | 0.00 | 47 | 1013.3 |
| 20260504194535 | 77 | 208 | 0.0 | 1.0 | 0.00 | 0.00 | 0.00 | 45 | 1013.6 |
| 20260504193017 | 76 | 201 | 0.0 | 5.0 | 0.00 | 0.00 | 0.00 | 49 | 1013.6 |
| 20260504191522 | 76 | 71 | 0.0 | 5.0 | 0.00 | 0.00 | 0.00 | 48 | 1013.9 |
| 20260504190121 | 76 | 209 | 0.0 | 5.0 | 0.00 | 0.00 | 0.00 | 49 | 1014.0 |
| 20260504184551 | 76 | 295 | 0.0 | 4.0 | 0.00 | 0.00 | 0.00 | 49 | 1014.0 |
| 20260504183032 | 76 | 294 | 0.0 | 7.0 | 0.00 | 0.00 | 0.00 | 50 | 1014.5 |
| 20260504181527 | 75 | 267 | 0.0 | 3.0 | 0.00 | 0.00 | 0.00 | 53 | 1014.7 |
| 20260504180007 | 75 | 235 | 0.0 | 3.0 | 0.00 | 0.00 | 0.00 | 51 | 1014.8 |
| 20260504174503 | 74 | 309 | 0.0 | 5.0 | 0.00 | 0.00 | 0.00 | 54 | 1015.1 |
| 20260504173044 | 74 | 201 | 0.0 | 7.0 | 0.00 | 0.00 | 0.00 | 55 | 1015.1 |
| 20260504171540 | 73 | 221 | 0.0 | 8.0 | 0.00 | 0.00 | 0.00 | 55 | 1015.4 |
| 20260504081554 | 48 | 248 | 0.0 | 0.0 | 0.00 | 0.00 | 0.00 | 89 | 1016.0 |
| 20260504044532 | 50 | 248 | 0.0 | 0.0 | 0.00 | 0.00 | 0.00 | 81 | 1017.4 |
| 20260504043009 | 51 | 248 | 0.0 | 0.0 | 0.00 | 0.00 | 0.00 | 80 | 1017.4 |
| 20260504041507 | 51 | 248 | 0.0 | 0.0 | 0.00 | 0.00 | 0.00 | 79 | 1017.6 |
| 20260504040047 | 51 | 248 | 0.0 | 0.0 | 0.00 | 0.00 | 0.00 | 78 | 1017.6 |
| 20260504034545 | 52 | 248 | 0.0 | 0.0 | 0.00 | 0.00 | 0.00 | 77 | 1017.8 |
| 20260504033028 | 52 | 248 | 0.0 | 0.0 | 0.00 | 0.00 | 0.00 | 77 | 1018.0 |
| 20260504031528 | 53 | 248 | 0.0 | 0.0 | 0.00 | 0.00 | 0.00 | 76 | 1018.0 |
| 20260504030116 | 53 | 248 | 0.0 | 0.0 | 0.00 | 0.00 | 0.00 | 75 | 1018.0 |
| 20260504024505 | 54 | 248 | 0.0 | 0.0 | 0.00 | 0.00 | 0.00 | 75 | 1017.8 |
| 20260504023043 | 54 | 248 | 0.0 | 0.0 | 0.00 | 0.00 | 0.00 | 74 | 1017.6 |
| 20260504021540 | 55 | 248 | 0.0 | 0.0 | 0.00 | 0.00 | 0.00 | 71 | 1017.5 |
| 20260504020020 | 56 | 248 | 0.0 | 0.0 | 0.00 | 0.00 | 0.00 | 70 | 1017.4 |
| 20260504014533 | 57 | 248 | 0.0 | 0.0 | 0.00 | 0.00 | 0.00 | 68 | 1017.3 |
| 20260504013114 | 58 | 248 | 0.0 | 0.0 | 0.00 | 0.00 | 0.00 | 67 | 1017.2 |
| 20260504011552 | 59 | 248 | 0.0 | 0.0 | 0.00 | 0.00 | 0.00 | 64 | 1017.1 |